Location: Oberwangen
(47.4286°N, 8.9679°E)
Time: 08:19:01
(UTC+00:00)

SAR-Lupe-2 - Pass Details

Date: 20 June 2021
Orbit: 482 x 484 km, 98.1° (Epoch: 20 July)

Event Time Altitude Azimuth Distance (km) Brightness Sun altitude
Rises 23:02:55 0° 16° (NNE) 2,562 8.5 -18.9°
Reaches altitude 10° 23:05:00 10° 19° (NNE) 1,676 7.3 -19.0°
Maximum altitude 23:08:35 68° 102° (ESE) 525 3.5 -19.0°
Enters shadow 23:09:06 58° 153° (SSE) 571 3.5 -19.0°
